Location: Bourg-d�Oueil
(42.8588°N, 0.4991°E)
Time: 05:45:03
(UTC+00:00)

Cosmos 1140 Rocket - Visible Passes

Search period start: 24 October 2021 00:00
Search period end: 03 November 2021 00:00
Orbit: 745 x 767 km, 74.1° (Epoch: 23 October)

Date Brightness Start Highest point End Pass type
(mag) Time Alt. Az. Time Alt. Az. Time Alt. Az.
24 Oct 4.6 18:15:50 10° N 18:19:54 22° ENE 18:20:32 22° ENE visible
24 Oct 4.7 19:56:56 10° NNW 20:00:35 40° WNW 20:00:35 40° WNW visible
25 Oct 5.2 17:36:12 10° NNE 17:38:43 13° NE 17:41:12 10° E visible
25 Oct 3.3 19:16:04 10° NNW 19:21:16 88° NE 19:21:16 88° NE visible
25 Oct 6.5 21:00:57 10° WNW 21:01:19 10° W 21:01:19 10° W visible
26 Oct 3.6 18:35:26 10° N 18:40:30 49° ENE 18:42:07 36° ESE visible
26 Oct 5.7 20:18:04 10° NW 20:21:53 21° W 20:22:12 21° WSW visible
27 Oct 4.4 17:55:04 10° N 17:59:33 28° ENE 18:03:16 13° ESE visible
27 Oct 4.7 19:36:37 10° NW 19:41:25 38° WSW 19:43:22 28° SW visible
28 Oct 5.0 17:15:05 10° NNE 17:18:27 17° NE 17:21:48 10° E visible
28 Oct 3.7 18:55:36 10° NNW 19:00:48 71° WSW 19:05:03 15° S visible
29 Oct 3.4 18:14:52 10° NNW 18:20:03 64° ENE 18:25:14 10° SSE visible
29 Oct 6.2 19:58:11 10° WNW 20:01:15 16° W 20:04:20 10° SW visible
30 Oct 4.0 17:34:22 10° N 17:39:10 36° ENE 17:43:58 10° SE visible
30 Oct 5.3 19:16:22 10° NW 19:20:50 29° W 19:25:17 10° SSW visible
31 Oct 4.2 18:35:12 10° NNW 18:40:16 54° WSW 18:45:21 10° S visible
01 Nov 3.4 17:54:21 10° NNW 17:59:35 83° ENE 18:04:49 10° SSE visible
01 Nov 6.6 19:38:45 10° WNW 19:40:35 12° W 19:42:25 10° WSW visible
02 Nov 3.8 17:13:45 10° N 17:18:47 46° ENE 17:23:47 10° SE visible
02 Nov 5.9 18:56:14 10° NW 19:00:13 22° W 19:04:11 10° SSW visible
